Maple Lake, MN

10:55 AM CDT on May 27, 2017 (GMT -0500)
Maple Lake Municipal

Weather History for KMGG - December, 2012

Change the Weather History Date:

Saturday, December 29, 2012

  Actual Average (KSTC) Record (KSTC)
Temperature  
Mean Temperature 9 °F -  
Max Temperature 17 °F 18 °F 52 °F (1999)
Min Temperature 0 °F 1 °F -27 °F (1917)
Degree Days  
Heating Degree Days 56    
Moisture  
Dew Point 7 °F    
Average Humidity 89    
Maximum Humidity 96    
Minimum Humidity 80    
Precipitation  
Precipitation 0.00 in - - ()
Sea Level Pressure  
Sea Level Pressure 30.07 in    
Wind  
Wind Speed 5 mph (WSW)    
Max Wind Speed 9 mph    
Max Gust Speed -    
Visibility 8 miles    
Events Snow    
Averages and records for this station are not official NWS values.
T = Trace of Precipitation, MM = Missing Value Source: NWS Daily Summary

Daily Weather History Graph

Daily Weather History Graph

Search for Another Location

Airport or City:

Trip Planner

Search our weather history database for the weather conditions in past years. The results will help you decide how hot, cold, wet, or windy it might be!

Date:

Astronomy

Dec. 29, 2012 Rise Set
Actual Time 7:54 AM CST 4:41 PM CST
Civil Twilight 7:20 AM CST 5:15 PM CST
Nautical Twilight 6:43 AM CST 5:53 PM CST
Astronomical Twilight 6:07 AM CST 6:29 PM CST
Moon 6:20 PM CST (12/29) 8:24 AM CST (12/29)
Length of Visible Light 9h 54m
Length of Day
8h 47m
Full, 98% of the Moon is Illuminated
Dec 29
Full
Jan 4
Last Quarter
Jan 11
New
Jan 18
First Quarter
Jan 26
Full

Hourly Weather History & Observations

Time (CST) Temp. Windchill Dew Point Humidity Pressure Visibility Wind Dir Wind Speed Gust Speed Precip Events Conditions
12:15 AM 15.8 °F 8.6 °F 14.7 °F 95% 30.03 in 10.0 mi WNW 4.6 mph - N/A   Overcast
12:35 AM 15.8 °F 8.6 °F 14.7 °F 95% 30.03 in 10.0 mi WNW 4.6 mph - N/A   Overcast
12:55 AM 16.5 °F 8.1 °F 14.9 °F 93% 30.03 in 10.0 mi WNW 5.8 mph - N/A   Overcast
1:15 AM 16.7 °F 11.2 °F 15.4 °F 95% 30.02 in 10.0 mi WNW 3.5 mph - N/A   Overcast
1:35 AM 17.1 °F - 15.4 °F 93% 30.02 in 10.0 mi Calm Calm - N/A   Overcast
1:55 AM 17.2 °F - 15.4 °F 93% 30.03 in 10.0 mi Calm Calm - N/A   Overcast
2:15 AM 17.2 °F - 15.1 °F 91% 30.02 in 10.0 mi Calm Calm - N/A   Overcast
2:35 AM 17.1 °F 11.7 °F 14.9 °F 91% 30.03 in 10.0 mi West 3.5 mph - N/A   Overcast
2:55 AM 16.7 °F 8.3 °F 14.7 °F 92% 30.03 in 10.0 mi West 5.8 mph - N/A Snow Light Snow
3:15 AM 16.3 °F 9.2 °F 14.0 °F 90% 30.03 in 10.0 mi WNW 4.6 mph - N/A   Overcast
3:35 AM 14.7 °F 7.3 °F 12.6 °F 91% 30.04 in 10.0 mi West 4.6 mph - N/A   Mostly Cloudy
3:54 AM 12.4 °F 2.0 °F 10.2 °F 91% 30.04 in 10.0 mi West 6.9 mph - N/A   Mostly Cloudy
4:15 AM 10.6 °F 1.0 °F 8.6 °F 92% 30.04 in 10.0 mi West 5.8 mph - N/A   Scattered Clouds
4:35 AM 9.5 °F -1.5 °F 7.7 °F 92% 30.04 in 10.0 mi West 6.9 mph - N/A   Mostly Cloudy
4:55 AM 9.5 °F -2.6 °F 7.7 °F 92% 30.04 in 10.0 mi West 8.1 mph - N/A   Overcast
5:15 AM 8.6 °F -4.7 °F 6.8 °F 92% 30.05 in 7.0 mi West 9.2 mph - N/A   Mostly Cloudy
5:35 AM 7.7 °F -3.7 °F 5.9 °F 92% 30.05 in 7.0 mi West 6.9 mph - N/A   Mostly Cloudy
5:55 AM 6.8 °F -3.5 °F 5.2 °F 93% 30.05 in 7.0 mi West 5.8 mph - N/A   Scattered Clouds
6:15 AM 6.8 °F -2.0 °F 5.0 °F 92% 30.05 in 7.0 mi West 4.6 mph - N/A   Mostly Cloudy
6:35 AM 7.3 °F -2.8 °F 5.9 °F 94% 30.05 in 7.0 mi West 5.8 mph - N/A   Overcast
6:55 AM 7.7 °F -3.7 °F 6.1 °F 93% 30.06 in 7.0 mi West 6.9 mph - N/A Snow Light Snow
7:15 AM 7.7 °F -0.9 °F 6.4 °F 95% 30.06 in 5.0 mi West 4.6 mph - N/A Snow Light Snow
7:35 AM 7.7 °F -3.7 °F 6.4 °F 95% 30.06 in 5.0 mi WSW 6.9 mph - N/A Snow Light Snow
7:55 AM 7.7 °F -3.7 °F 6.4 °F 95% 30.07 in 5.0 mi West 6.9 mph - N/A   Overcast
8:15 AM 7.7 °F -3.7 °F 6.8 °F 96% 30.07 in 4.0 mi West 6.9 mph - N/A Snow Light Snow
8:35 AM 8.1 °F -2.0 °F 6.8 °F 95% 30.07 in 2.5 mi West 5.8 mph - N/A Snow Light Snow
8:54 AM 8.2 °F -3.0 °F 7.0 °F 95% 30.07 in 1.5 mi West 6.9 mph - N/A Snow Light Snow
9:15 AM 8.8 °F -2.4 °F 7.5 °F 95% 30.08 in 1.0 mi WSW 6.9 mph - N/A Snow Light Snow
9:35 AM 9.3 °F -0.5 °F 7.7 °F 93% 30.07 in 0.8 mi WSW 5.8 mph - N/A Snow Light Snow
9:55 AM 9.5 °F -1.5 °F 7.7 °F 92% 30.07 in 1.5 mi WSW 6.9 mph - N/A Snow Light Snow
10:15 AM 10.8 °F 2.7 °F 8.4 °F 90% 30.08 in 2.0 mi SW 4.6 mph - N/A Snow Light Snow
10:35 AM 11.7 °F 2.3 °F 8.6 °F 88% 30.09 in 7.0 mi WSW 5.8 mph - N/A   Clear
10:55 AM 12.2 °F 2.9 °F 8.6 °F 85% 30.09 in 2.0 mi WSW 5.8 mph - N/A Snow Light Snow
11:15 AM 12.7 °F 1.4 °F 8.6 °F 84% 30.08 in 4.0 mi WSW 8.1 mph - N/A Snow Light Snow
11:35 AM 13.1 °F 2.8 °F 9.0 °F 84% 30.08 in 3.0 mi WSW 6.9 mph - N/A Snow Light Snow
11:54 AM 13.5 °F 4.4 °F 9.1 °F 83% 30.07 in 7.0 mi SW 5.8 mph - N/A Snow Light Snow
12:15 PM 14.0 °F 6.5 °F 9.5 °F 82% 30.07 in 5.0 mi WSW 4.6 mph - N/A   Haze
12:35 PM 14.4 °F 3.3 °F 9.5 °F 81% 30.06 in 7.0 mi WSW 8.1 mph - N/A   Clear
12:55 PM 14.7 °F 5.9 °F 9.7 °F 80% 30.06 in 10.0 mi WSW 5.8 mph - N/A   Scattered Clouds
1:15 PM 14.4 °F 5.5 °F 9.9 °F 82% 30.06 in 10.0 mi WSW 5.8 mph - N/A   Overcast
1:35 PM 14.4 °F 4.3 °F 9.9 °F 82% 30.05 in 10.0 mi SW 6.9 mph - N/A   Overcast
1:55 PM 14.4 °F 5.5 °F 9.9 °F 82% 30.05 in 10.0 mi SW 5.8 mph - N/A   Overcast
2:35 PM 14.0 °F 3.9 °F 9.7 °F 83% 30.06 in 10.0 mi SW 6.9 mph - N/A   Overcast
2:55 PM 14.0 °F 6.5 °F 9.7 °F 83% 30.06 in 7.0 mi WSW 4.6 mph - N/A   Overcast
3:15 PM 14.0 °F 3.9 °F 10.0 °F 84% 30.06 in 7.0 mi WSW 6.9 mph - N/A   Overcast
3:35 PM 14.0 °F 5.1 °F 10.0 °F 84% 30.07 in 7.0 mi WSW 5.8 mph - N/A   Overcast
3:54 PM 13.6 °F 3.5 °F 9.9 °F 85% 30.07 in 7.0 mi WSW 6.9 mph - N/A Snow Light Snow
4:15 PM 12.6 °F 4.8 °F 9.1 °F 86% 30.07 in 2.5 mi WSW 4.6 mph - N/A Snow Light Snow
4:35 PM 10.8 °F 2.7 °F 7.7 °F 87% 30.08 in 5.0 mi WSW 4.6 mph - N/A Snow Light Snow
4:55 PM 9.0 °F 0.6 °F 6.4 °F 89% 30.08 in 10.0 mi WSW 4.6 mph - N/A   Clear
5:15 PM 8.4 °F -1.6 °F 5.9 °F 89% 30.08 in 10.0 mi SW 5.8 mph - N/A   Clear
5:35 PM 7.5 °F -3.9 °F 5.2 °F 90% 30.08 in 10.0 mi WSW 6.9 mph - N/A   Clear
5:55 PM 7.3 °F -5.2 °F 4.6 °F 89% 30.09 in 10.0 mi WSW 8.1 mph - N/A   Clear
6:15 PM 6.1 °F -5.6 °F 3.7 °F 90% 30.09 in 10.0 mi WSW 6.9 mph - N/A   Clear
6:35 PM 5.9 °F -4.5 °F 3.6 °F 90% 30.10 in 10.0 mi West 5.8 mph - N/A   Clear
7:15 PM 5.0 °F -4.1 °F 2.5 °F 89% 30.11 in 7.0 mi WSW 4.6 mph - N/A   Clear
7:35 PM 4.5 °F -6.3 °F 2.3 °F 91% 30.11 in 7.0 mi WSW 5.8 mph - N/A   Clear
7:55 PM 3.9 °F -6.9 °F 1.6 °F 90% 30.12 in 7.0 mi WSW 5.8 mph - N/A   Clear
8:15 PM 3.9 °F -5.3 °F 1.6 °F 90% 30.11 in 7.0 mi West 4.6 mph - N/A   Clear
8:34 PM 3.4 °F -7.5 °F 0.7 °F 89% 30.12 in 10.0 mi WSW 5.8 mph - N/A   Clear
8:55 PM 3.0 °F -6.4 °F 0.3 °F 88% 30.12 in 10.0 mi WSW 4.6 mph - N/A   Clear
9:15 PM 2.3 °F -8.8 °F -0.4 °F 88% 30.13 in 10.0 mi WSW 5.8 mph - N/A   Clear
9:34 PM 2.5 °F -7.0 °F -0.0 °F 89% 30.13 in 10.0 mi West 4.6 mph - N/A   Clear
9:55 PM 2.3 °F -7.2 °F -0.4 °F 88% 30.14 in 10.0 mi WSW 4.6 mph - N/A   Clear
10:15 PM 2.3 °F -7.2 °F -0.2 °F 89% 30.14 in 7.0 mi West 4.6 mph - N/A   Clear
10:35 PM 2.3 °F -8.8 °F -0.2 °F 89% 30.15 in 10.0 mi West 5.8 mph - N/A   Clear
10:55 PM 2.3 °F -8.8 °F -0.0 °F 90% 30.16 in 10.0 mi West 5.8 mph - N/A   Clear
11:15 PM 1.2 °F -8.5 °F -1.3 °F 89% 30.15 in 7.0 mi WSW 4.6 mph - N/A   Clear
11:35 PM 1.0 °F - -1.3 °F 90% 30.14 in 7.0 mi Calm Calm - N/A   Clear
11:55 PM 0.3 °F - -2.0 °F 90% 30.14 in 7.0 mi Calm Calm - N/A   Clear